Total_Precipitation_Accumulation
1.09 1.13 1.23 0.86 0.67 0.61 0.66 0.65 0.60 0.58 0.55 0.55 0.61 0.66 0.66 0.65 0.61 0.61 0.68 0.87 0.94 1.06 1.27 1.38 1.38 1.30 1.21 1.15 1.14 1.03 0.90 0.92 1.01 1.04 1.04 1.15 1.23 1.47 1.81 1.67 1.54 1.10 1.02
0.83 0.87 1.02 0.77 0.57 0.56 0.55 0.55 0.53 0.52 0.50 0.48 0.51 0.57 0.66 0.78 0.77 0.74 0.79 0.97 1.05 1.28 1.33 1.34 1.31 1.15 1.14 1.05 0.94 0.86 0.82 0.93 1.05 1.13 1.08 1.02 1.28 1.60 1.81 1.66 1.65 1.03 0.95
0.62 0.64 0.68 0.69 0.57 0.48 0.48 0.51 0.52 0.54 0.49 0.45 0.46 0.52 0.61 0.84 0.96 0.95 0.97 1.16 1.34 1.40 1.29 1.29 1.11 0.94 0.93 0.82 0.78 0.77 0.82 0.95 1.08 1.33 1.39 1.05 1.01 1.62 1.68 1.53 1.20 0.84 0.83
0.50 0.53 0.51 0.55 0.54 0.45 0.44 0.48 0.49 0.49 0.47 0.48 0.53 0.58 0.63 0.77 0.92 1.02 1.12 1.27 1.40 1.32 1.21 1.02 0.87 0.76 0.71 0.64 0.65 0.69 0.80 1.00 1.27 1.60 1.66 1.23 0.77 1.23 1.46 1.29 1.01 0.84 0.80
0.48 0.46 0.56 0.56 0.52 0.46 0.41 0.47 0.48 0.49 0.50 0.51 0.57 0.61 0.66 0.77 0.93 1.07 1.11 1.20 1.20 1.07 0.94 0.85 0.79 0.67 0.60 0.55 0.58 0.67 0.81 1.04 1.25 1.52 1.41 1.35 1.19 1.22 1.25 1.20 1.03 0.98 0.91
0.52 0.48 0.53 0.55 0.51 0.50 0.43 0.42 0.47 0.49 0.55 0.58 0.64 0.70 0.74 0.84 0.94 0.98 1.02 1.09 1.06 0.96 0.87 0.84 0.75 0.63 0.55 0.52 0.57 0.64 0.78 1.04 1.14 0.97 0.99 1.13 1.05 1.14 1.13 1.23 1.17 1.05 0.92
0.71 0.66 0.61 0.62 0.58 0.53 0.43 0.40 0.45 0.49 0.59 0.62 0.68 0.71 0.71 0.75 0.80 0.87 0.94 0.95 0.91 0.84 0.75 0.73 0.69 0.59 0.60 0.64 0.64 0.65 0.84 1.08 0.98 0.83 0.88 1.21 1.07 0.91 1.12 1.34 1.38 1.19 0.96
0.78 0.77 0.73 0.74 0.68 0.62 0.51 0.47 0.52 0.56 0.63 0.67 0.68 0.67 0.68 0.70 0.71 0.75 0.82 0.83 0.72 0.63 0.62 0.69 0.70 0.63 0.62 0.69 0.65 0.67 0.82 0.93 0.74 0.76 0.75 0.87 0.79 0.85 1.09 1.33 1.39 1.27 1.07
0.92 0.86 0.80 0.76 0.67 0.67 0.64 0.60 0.63 0.69 0.73 0.71 0.70 0.67 0.65 0.67 0.69 0.70 0.76 0.72 0.62 0.56 0.54 0.61 0.64 0.61 0.59 0.64 0.70 0.77 0.92 1.07 0.93 0.91 0.72 0.81 0.77 0.95 1.17 1.34 1.42 1.37 1.29
1.31 1.07 0.90 0.90 0.87 0.76 0.74 0.73 0.81 0.85 0.83 0.82 0.75 0.74 0.74 0.77 0.73 0.72 0.70 0.67 0.65 0.61 0.57 0.57 0.62 0.59 0.62 0.65 0.73 0.92 1.15 1.05 0.81 0.89 0.92 0.77 0.83 1.14 1.42 1.43 1.52 1.56 1.52
1.67 1.40 1.15 1.02 0.99 0.93 0.89 0.94 1.16 1.15 1.05 0.98 0.96 0.94 0.90 0.98 0.91 0.87 0.77 0.84 0.83 0.82 0.84 0.84 0.88 0.83 0.81 0.77 0.93 1.18 1.18 0.96 0.97 1.12 1.12 0.88 1.05 1.41 1.69 1.70 1.68 1.67 1.68
1.83 1.51 1.41 1.26 1.11 1.04 0.89 1.01 1.38 1.28 1.17 1.21 1.26 1.15 1.24 1.30 1.26 0.94 1.02 1.23 1.32 1.38 1.37 1.47 1.58 1.31 1.11 1.20 1.69 1.76 1.19 1.10 1.23 1.26 1.23 1.13 1.40 1.82 2.02 2.04 2.00 1.83 1.76
2.09 1.75 1.62 1.48 1.37 1.36 1.45 1.30 1.40 1.49 1.50 1.48 1.46 1.46 1.50 1.29 1.18 1.16 1.34 1.59 1.76 1.80 1.77 2.07 2.13 1.67 1.77 2.14 2.25 2.01 1.50 1.41 1.53 1.44 1.56 1.59 1.66 2.10 2.52 2.48 2.41 2.16 1.97
2.35 2.05 1.83 1.70 1.69 1.74 1.69 1.62 1.51 1.54 1.52 1.55 1.64 1.63 1.76 1.86 1.81 1.83 1.93 1.92 2.07 2.22 2.50 2.57 2.74 2.37 2.36 2.26 2.13 2.07 1.90 1.96 1.83 2.00 2.37 2.12 1.87 2.18 2.84 2.92 2.81 2.57 2.16
2.50 2.21 2.16 1.90 1.80 1.85 1.96 2.01 1.79 1.90 1.83 1.81 1.95 2.05 2.08 2.28 2.31 2.34 2.31 2.30 2.14 2.30 2.54 2.94 2.92 3.14 3.11 2.78 2.37 2.20 2.21 2.27 2.19 2.31 2.57 2.59 2.42 2.49 3.19 3.55 3.40 3.08 2.64
2.46 2.29 2.25 2.12 2.14 2.21 2.19 2.23 2.28 2.30 2.33 2.23 2.20 2.23 2.29 2.50 2.75 2.76 2.66 2.64 2.43 2.41 2.73 3.03 3.09 3.57 3.46 3.32 2.80 2.53 2.38 2.33 2.31 2.44 2.71 2.90 2.81 2.78 3.18 3.64 3.80 3.70 3.32
2.25 2.34 2.49 2.62 2.80 2.86 2.82 2.76 2.70 2.73 2.68 2.70 2.83 2.83 2.88 2.85 2.94 2.85 2.84 2.72 2.75 2.79 2.97 3.05 3.21 3.61 3.41 3.34 3.16 2.87 2.63 2.46 2.36 2.54 2.88 3.19 2.89 2.81 3.14 3.58 3.93 3.87 3.70
2.29 2.40 2.62 2.73 3.10 3.25 3.28 3.35 3.27 3.19 3.10 3.20 3.22 3.25 3.23 3.16 3.02 3.07 2.89 2.73 2.92 2.99 3.18 3.42 3.43 3.53 3.64 3.60 3.40 3.05 2.89 2.79 2.42 2.51 2.67 2.82 3.02 2.62 3.00 3.57 3.80 3.57 3.54
2.65 2.91 3.23 3.30 3.25 3.33 3.52 3.67 3.45 3.37 3.27 3.19 3.12 3.22 3.14 2.99 2.93 3.23 3.09 3.11 3.18 3.38 3.30 3.05 3.54 3.71 3.67 3.61 3.17 3.08 2.74 2.70 2.59 2.45 2.58 2.60 2.81 2.77 2.82 2.90 3.37 3.22 3.41
3.02 3.37 3.54 3.63 3.82 4.09 4.27 4.17 3.92 3.50 3.21 3.11 3.04 3.02 3.00 2.99 2.91 3.21 3.01 3.05 3.24 3.58 3.66 3.61 3.82 3.72 3.58 3.63 3.10 2.93 2.61 2.38 2.36 2.29 2.13 2.35 2.44 2.19 2.35 2.55 2.92 2.49 2.71
3.05 3.28 3.57 3.99 4.34 4.42 4.23 4.15 4.06 3.75 3.44 3.12 2.84 2.78 2.91 2.82 2.88 3.19 2.91 3.26 3.33 3.48 3.67 3.66 3.84 3.75 3.54 3.63 3.55 3.06 2.51 2.19 2.09 1.92 1.93 2.08 2.02 2.07 2.37 2.73 2.96 2.90 2.56
2.89 3.18 3.58 4.02 4.34 4.25 4.33 4.52 4.44 4.21 3.53 3.16 2.99 2.90 2.83 2.77 2.77 2.85 3.29 3.28 3.36 3.53 3.56 3.50 3.58 3.45 3.20 3.48 3.62 3.43 2.79 2.40 2.01 1.65 1.83 1.82 1.94 2.20 2.23 2.25 2.58 2.91 2.77
2.92 3.33 3.60 3.91 4.07 4.10 4.27 4.39 4.10 3.88 3.38 3.22 3.21 3.03 2.91 2.90 2.91 3.02 3.24 3.32 3.32 3.18 3.32 3.48 3.32 3.26 3.15 3.21 3.39 3.46 2.95 2.46 2.04 1.74 1.61 1.63 2.00 2.23 2.16 2.12 2.05 2.22 2.32
2.87 3.44 3.84 3.86 3.92 3.81 3.92 4.01 3.82 3.47 3.20 3.09 3.07 2.85 2.76 2.70 2.72 2.82 2.90 3.07 3.17 3.07 3.15 3.07 3.06 3.15 3.15 2.99 3.10 3.06 2.89 2.67 2.48 2.01 1.61 1.57 1.80 1.94 1.95 1.80 1.85 2.10 2.23
2.60 3.00 3.40 3.74 3.80 3.61 3.54 3.56 3.69 3.51 3.22 3.00 2.87 2.77 2.71 2.69 2.51 2.48 2.62 2.80 2.87 2.79 2.74 2.95 3.20 3.13 2.96 2.85 2.91 2.92 3.04 2.93 2.63 2.31 1.88 1.74 1.66 1.52 1.63 1.69 1.73 1.83 2.05
2.41 2.75 3.03 3.27 3.26 3.18 3.12 3.15 3.24 3.28 3.23 2.97 2.75 2.75 2.73 2.59 2.42 2.33 2.34 2.52 2.62 2.59 2.56 2.66 2.77 2.81 2.78 2.85 2.84 2.78 2.92 2.90 2.77 2.62 2.18 1.89 1.72 1.38 1.41 1.48 1.61 1.70 1.81